Location: Corralito
(14.1667°N, 87.1833°W)
Time: 21:23:56
(UTC+00:00)

Cosmos 2173 Rocket - Pass Details

Date: 07 June 2020
Orbit: 945 x 1000 km, 83.0° (Epoch: 04 July)

Event Time Altitude Azimuth Distance (km) Brightness Sun altitude
Rises 10:50:49 0° 177° (S) 3,630 6.8 -7.2°
Reaches altitude 10° 10:53:18 10° 174° (S) 2,692 6.1 -6.6°
Maximum altitude 10:59:25 68° 93° (E) 1,044 4.5 -5.3°
Drops below altitude 10° 11:05:37 10° 11° (N) 2,732 6.9 -3.9°
Sets 11:08:10 0° 9° (N) 3,688 7.5 -3.4°
